Terug naar catalogus

KUIPER-00621

ActiefCommunicatieLEO
NORAD 69778·PAYLOAD·🇺🇸 United States

Gelanceerd Jul 2, 2026 vanaf Cape Canaveral Space Force Station

Loading…

Volgende Passages (komende 24 uur)

TLE

VersSource: CelesTrak SupGP

Epoch: Sep 14, 2026, 21:05 UTC

1 69778C 26151R   26257.87894676  .00003047  00000+0  39892-3 0  2573
2 69778  51.8988 254.0502 0000679 102.6802 128.2645 14.79917345    16

Volg KUIPER-00621 in realtime met AllMySat

Download on the App Store